Time,TemperatureF,DewpointF,PressureIn,WindDirection,WindDirectionDegrees,WindSpeedMPH,WindSpeedGustMPH,Humidity,HourlyPrecipIn,Conditions,Clouds,dailyrainin,SolarRadiationWatts/m^2,SoftwareType,DateUTC
2013-05-16 00:01:00,55.1,51.9,29.67,SSE,162,0.0,0.0,89,0.00,,,0.00,0,HR-IXPWINDi_r2_v1.2.,2013-05-16 04:01:00,
2013-05-16 00:06:00,55.0,51.8,29.67,SSE,162,0.0,0.0,89,0.00,,,0.00,0,HR-IXPWINDi_r2_v1.2.,2013-05-16 04:06:00,
2013-05-16 00:11:00,54.8,51.6,29.67,SSE,162,0.0,0.0,89,0.00,,,0.00,0,HR-IXPWINDi_r2_v1.2.,2013-05-16 04:11:00,
2013-05-16 00:16:00,54.8,51.6,29.67,SSE,162,0.0,0.0,89,0.00,,,0.00,0,HR-IXPWINDi_r2_v1.2.,2013-05-16 04:16:00,
2013-05-16 00:21:00,54.7,51.5,29.67,SSE,162,0.0,0.0,89,0.00,,,0.00,0,HR-IXPWINDi_r2_v1.2.,2013-05-16 04:21:00,
2013-05-16 00:26:00,54.7,51.5,29.67,SSE,162,0.0,0.0,89,0.00,,,0.00,0,HR-IXPWINDi_r2_v1.2.,2013-05-16 04:26:00,
2013-05-16 00:32:00,54.7,51.5,29.67,SSE,162,0.0,0.0,89,0.00,,,0.00,0,HR-IXPWINDi_r2_v1.2.,2013-05-16 04:32:00,
2013-05-16 00:37:00,54.5,51.3,29.68,SSE,162,0.0,0.0,89,0.00,,,0.00,0,HR-IXPWINDi_r2_v1.2.,2013-05-16 04:37:00,
2013-05-16 00:42:00,54.5,51.6,29.68,SSE,162,0.0,0.0,90,0.00,,,0.00,0,HR-IXPWINDi_r2_v1.2.,2013-05-16 04:42:00,
2013-05-16 00:47:00,54.5,51.6,29.68,SSE,162,0.0,0.0,90,0.00,,,0.00,0,HR-IXPWINDi_r2_v1.2.,2013-05-16 04:47:00,
2013-05-16 00:52:00,54.5,51.6,29.68,SSE,162,0.0,0.0,90,0.00,,,0.00,0,HR-IXPWINDi_r2_v1.2.,2013-05-16 04:52:00,
2013-05-16 00:58:00,54.4,51.5,29.68,SSE,162,0.0,0.0,90,0.00,,,0.00,0,HR-IXPWINDi_r2_v1.2.,2013-05-16 04:58:00,
2013-05-16 01:03:00,54.5,51.6,29.68,SSE,162,0.0,0.0,90,0.00,,,0.00,0,HR-IXPWINDi_r2_v1.2.,2013-05-16 05:03:00,
2013-05-16 01:08:00,54.4,51.5,29.68,SSE,162,0.0,0.0,90,0.00,,,0.00,0,HR-IXPWINDi_r2_v1.2.,2013-05-16 05:08:00,
2013-05-16 01:13:00,54.4,51.5,29.68,SSE,162,0.0,0.0,90,0.00,,,0.00,0,HR-IXPWINDi_r2_v1.2.,2013-05-16 05:13:00,
2013-05-16 01:18:00,54.4,51.5,29.68,SSE,162,0.0,0.0,90,0.00,,,0.00,0,HR-IXPWINDi_r2_v1.2.,2013-05-16 05:18:00,
2013-05-16 01:23:00,54.4,51.5,29.68,SSE,162,0.0,0.0,90,0.00,,,0.00,0,HR-IXPWINDi_r2_v1.2.,2013-05-16 05:23:00,
2013-05-16 01:28:00,54.4,51.5,29.68,SSE,162,0.0,0.0,90,0.00,,,0.00,0,HR-IXPWINDi_r2_v1.2.,2013-05-16 05:28:00,
2013-05-16 01:34:00,54.2,51.3,29.68,SSE,162,0.0,0.0,90,0.00,,,0.00,0,HR-IXPWINDi_r2_v1.2.,2013-05-16 05:34:00,
2013-05-16 01:39:00,54.2,51.3,29.68,SSE,162,0.0,0.0,90,0.00,,,0.00,0,HR-IXPWINDi_r2_v1.2.,2013-05-16 05:39:00,
2013-05-16 01:44:00,54.2,51.3,29.68,SSE,162,0.0,0.0,90,0.00,,,0.00,0,HR-IXPWINDi_r2_v1.2.,2013-05-16 05:44:00,
2013-05-16 01:49:00,54.1,51.5,29.68,SSE,162,0.0,0.0,91,0.00,,,0.00,0,HR-IXPWINDi_r2_v1.2.,2013-05-16 05:49:00,
2013-05-16 01:55:00,54.1,51.5,29.68,SSE,162,0.0,0.0,91,0.00,,,0.00,0,HR-IXPWINDi_r2_v1.2.,2013-05-16 05:55:00,
2013-05-16 02:00:00,53.9,51.3,29.68,SSE,162,0.0,0.0,91,0.00,,,0.00,0,HR-IXPWINDi_r2_v1.2.,2013-05-16 06:00:00,
2013-05-16 02:05:00,53.9,51.3,29.68,SSE,162,0.0,0.0,91,0.00,,,0.00,0,HR-IXPWINDi_r2_v1.2.,2013-05-16 06:05:00,
2013-05-16 02:10:00,53.9,51.3,29.68,SSE,162,0.0,0.0,91,0.00,,,0.00,0,HR-IXPWINDi_r2_v1.2.,2013-05-16 06:10:00,
2013-05-16 02:15:00,53.8,51.2,29.68,SSE,162,0.0,0.0,91,0.00,,,0.00,0,HR-IXPWINDi_r2_v1.2.,2013-05-16 06:15:00,
2013-05-16 02:21:00,53.6,51.0,29.68,SSE,162,0.0,0.0,91,0.00,,,0.00,0,HR-IXPWINDi_r2_v1.2.,2013-05-16 06:21:00,
2013-05-16 02:26:00,53.6,51.0,29.68,SSE,162,0.0,0.0,91,0.00,,,0.00,0,HR-IXPWINDi_r2_v1.2.,2013-05-16 06:26:00,
2013-05-16 02:31:00,53.6,51.0,29.68,SSE,162,0.0,0.0,91,0.00,,,0.00,0,HR-IXPWINDi_r2_v1.2.,2013-05-16 06:31:00,
2013-05-16 02:36:00,53.5,50.9,29.68,SSE,162,0.0,0.0,91,0.00,,,0.00,0,HR-IXPWINDi_r2_v1.2.,2013-05-16 06:36:00,
2013-05-16 02:41:00,53.5,50.9,29.68,SSE,162,0.0,0.0,91,0.00,,,0.00,0,HR-IXPWINDi_r2_v1.2.,2013-05-16 06:41:00,
2013-05-16 02:47:00,53.5,50.9,29.68,SSE,162,0.0,0.0,91,0.00,,,0.00,0,HR-IXPWINDi_r2_v1.2.,2013-05-16 06:47:00,
2013-05-16 02:52:00,53.3,50.7,29.68,SSE,162,0.0,0.0,91,0.00,,,0.00,0,HR-IXPWINDi_r2_v1.2.,2013-05-16 06:52:00,
2013-05-16 02:57:00,53.3,50.7,29.68,SSE,162,0.0,0.0,91,0.00,,,0.00,0,HR-IXPWINDi_r2_v1.2.,2013-05-16 06:57:00,
2013-05-16 03:02:00,53.3,50.7,29.68,SSE,162,0.0,0.0,91,0.00,,,0.00,0,HR-IXPWINDi_r2_v1.2.,2013-05-16 07:02:00,
2013-05-16 03:07:00,53.2,50.6,29.68,SSE,162,0.0,0.0,91,0.00,,,0.00,0,HR-IXPWINDi_r2_v1.2.,2013-05-16 07:07:00,
2013-05-16 03:12:00,53.1,50.5,29.68,SSE,162,0.0,0.0,91,0.00,,,0.00,0,HR-IXPWINDi_r2_v1.2.,2013-05-16 07:12:00,
2013-05-16 03:18:00,53.1,50.5,29.68,SSE,162,0.0,0.0,91,0.00,,,0.00,0,HR-IXPWINDi_r2_v1.2.,2013-05-16 07:18:00,
2013-05-16 03:23:00,53.1,50.5,29.68,SSE,162,0.0,0.0,91,0.00,,,0.00,0,HR-IXPWINDi_r2_v1.2.,2013-05-16 07:23:00,
2013-05-16 03:28:00,52.9,50.3,29.68,SSE,162,0.0,0.0,91,0.00,,,0.00,0,HR-IXPWINDi_r2_v1.2.,2013-05-16 07:28:00,
2013-05-16 03:33:00,52.8,50.2,29.68,SSE,162,0.0,0.0,91,0.00,,,0.00,0,HR-IXPWINDi_r2_v1.2.,2013-05-16 07:33:00,
2013-05-16 03:38:00,52.8,50.2,29.67,SSE,162,0.0,0.0,91,0.00,,,0.00,0,HR-IXPWINDi_r2_v1.2.,2013-05-16 07:38:00,
2013-05-16 03:44:00,52.8,50.2,29.67,SSE,162,0.0,0.0,91,0.00,,,0.00,0,HR-IXPWINDi_r2_v1.2.,2013-05-16 07:44:00,
2013-05-16 03:49:00,52.6,50.0,29.67,SSE,162,0.0,0.0,91,0.00,,,0.00,0,HR-IXPWINDi_r2_v1.2.,2013-05-16 07:49:00,
2013-05-16 03:54:00,52.5,49.9,29.67,SSE,162,0.0,0.0,91,0.00,,,0.00,0,HR-IXPWINDi_r2_v1.2.,2013-05-16 07:54:00,
2013-05-16 03:59:00,52.5,49.9,29.67,SSE,162,0.0,0.0,91,0.00,,,0.00,0,HR-IXPWINDi_r2_v1.2.,2013-05-16 07:59:00,
2013-05-16 04:04:00,52.3,49.7,29.67,SSE,162,0.0,0.0,91,0.00,,,0.00,0,HR-IXPWINDi_r2_v1.2.,2013-05-16 08:04:00,
2013-05-16 04:09:00,52.2,49.6,29.67,SSE,162,0.0,0.0,91,0.00,,,0.00,0,HR-IXPWINDi_r2_v1.2.,2013-05-16 08:09:00,
2013-05-16 04:14:00,52.0,49.4,29.67,SSE,162,0.0,0.0,91,0.00,,,0.00,0,HR-IXPWINDi_r2_v1.2.,2013-05-16 08:14:00,
2013-05-16 04:20:00,51.9,49.3,29.67,SSE,162,0.0,0.0,91,0.00,,,0.00,0,HR-IXPWINDi_r2_v1.2.,2013-05-16 08:20:00,
2013-05-16 04:25:00,51.9,49.6,29.67,SSE,162,0.0,0.0,92,0.00,,,0.00,0,HR-IXPWINDi_r2_v1.2.,2013-05-16 08:25:00,
2013-05-16 04:30:00,51.9,49.6,29.67,SSE,162,0.0,0.0,92,0.00,,,0.00,0,HR-IXPWINDi_r2_v1.2.,2013-05-16 08:30:00,
2013-05-16 04:35:00,51.7,49.4,29.68,SSE,162,0.0,0.0,92,0.00,,,0.00,0,HR-IXPWINDi_r2_v1.2.,2013-05-16 08:35:00,
2013-05-16 04:40:00,51.7,49.4,29.68,SSE,162,0.0,0.0,92,0.00,,,0.00,0,HR-IXPWINDi_r2_v1.2.,2013-05-16 08:40:00,
2013-05-16 04:46:00,51.6,49.3,29.68,SSE,162,0.0,0.0,92,0.00,,,0.00,0,HR-IXPWINDi_r2_v1.2.,2013-05-16 08:46:00,
2013-05-16 04:51:00,51.6,49.3,29.68,SSE,162,0.0,0.0,92,0.00,,,0.00,0,HR-IXPWINDi_r2_v1.2.,2013-05-16 08:51:00,
2013-05-16 04:56:00,51.4,49.1,29.68,SSE,162,0.0,0.0,92,0.00,,,0.00,0,HR-IXPWINDi_r2_v1.2.,2013-05-16 08:56:00,
2013-05-16 05:01:00,51.4,49.1,29.68,SSE,162,0.0,0.0,92,0.00,,,0.00,0,HR-IXPWINDi_r2_v1.2.,2013-05-16 09:01:00,
2013-05-16 05:06:00,51.3,49.0,29.68,SSE,162,0.0,0.0,92,0.00,,,0.00,0,HR-IXPWINDi_r2_v1.2.,2013-05-16 09:06:00,
2013-05-16 05:11:00,51.1,48.8,29.68,SSE,162,0.0,0.0,92,0.00,,,0.00,0,HR-IXPWINDi_r2_v1.2.,2013-05-16 09:11:00,
2013-05-16 05:16:00,51.1,48.8,29.68,SSE,162,0.0,0.0,92,0.00,,,0.00,0,HR-IXPWINDi_r2_v1.2.,2013-05-16 09:16:00,
2013-05-16 05:21:00,51.1,48.8,29.69,SSE,162,0.0,0.0,92,0.00,,,0.00,0,HR-IXPWINDi_r2_v1.2.,2013-05-16 09:21:00,
2013-05-16 05:26:00,51.0,48.7,29.69,SSE,162,0.0,0.0,92,0.00,,,0.00,0,HR-IXPWINDi_r2_v1.2.,2013-05-16 09:26:00,
2013-05-16 05:32:00,51.0,48.7,29.69,SSE,162,0.0,0.0,92,0.00,,,0.00,0,HR-IXPWINDi_r2_v1.2.,2013-05-16 09:32:00,
2013-05-16 05:37:00,50.8,48.5,29.69,SSE,162,0.0,0.0,92,0.00,,,0.00,0,HR-IXPWINDi_r2_v1.2.,2013-05-16 09:37:00,
2013-05-16 05:42:00,51.0,48.7,29.69,SSE,162,0.0,0.0,92,0.00,,,0.00,0,HR-IXPWINDi_r2_v1.2.,2013-05-16 09:42:00,
2013-05-16 05:48:00,50.8,48.5,29.69,SSE,162,0.0,0.0,92,0.00,,,0.00,0,HR-IXPWINDi_r2_v1.2.,2013-05-16 09:48:00,
2013-05-16 05:53:00,50.8,48.5,29.69,SSE,162,0.0,0.0,92,0.00,,,0.00,0,HR-IXPWINDi_r2_v1.2.,2013-05-16 09:53:00,
2013-05-16 05:58:00,50.8,48.5,29.69,SSE,162,0.0,0.0,92,0.00,,,0.00,7,HR-IXPWINDi_r2_v1.2.,2013-05-16 09:58:00,
2013-05-16 06:03:00,50.8,48.5,29.69,SSE,162,0.0,0.0,92,0.00,,,0.00,11,HR-IXPWINDi_r2_v1.2.,2013-05-16 10:03:00,
2013-05-16 06:09:00,51.0,48.7,29.70,SSE,162,0.0,0.0,92,0.00,,,0.00,12,HR-IXPWINDi_r2_v1.2.,2013-05-16 10:09:00,
2013-05-16 06:14:00,51.1,48.8,29.70,SSE,162,0.0,0.0,92,0.00,,,0.00,12,HR-IXPWINDi_r2_v1.2.,2013-05-16 10:14:00,
2013-05-16 06:19:00,51.3,49.0,29.70,SSE,154,0.0,0.0,92,0.00,,,0.00,18,HR-IXPWINDi_r2_v1.2.,2013-05-16 10:19:00,
2013-05-16 06:24:00,51.4,49.1,29.70,SSE,162,0.0,0.0,92,0.00,,,0.00,18,HR-IXPWINDi_r2_v1.2.,2013-05-16 10:24:00,
2013-05-16 06:29:00,51.6,49.3,29.70,SSE,162,0.0,0.0,92,0.00,,,0.00,18,HR-IXPWINDi_r2_v1.2.,2013-05-16 10:29:00,
2013-05-16 06:34:00,52.0,49.7,29.70,SSE,162,0.0,0.0,92,0.00,,,0.00,16,HR-IXPWINDi_r2_v1.2.,2013-05-16 10:34:00,
2013-05-16 06:40:00,52.2,49.9,29.72,SSE,162,0.0,0.0,92,0.00,,,0.00,23,HR-IXPWINDi_r2_v1.2.,2013-05-16 10:40:00,
2013-05-16 06:45:00,52.3,50.0,29.72,SSE,162,0.0,0.0,92,0.00,,,0.00,21,HR-IXPWINDi_r2_v1.2.,2013-05-16 10:45:00,
2013-05-16 06:50:00,52.5,50.2,29.72,SSE,162,0.0,0.0,92,0.00,,,0.00,26,HR-IXPWINDi_r2_v1.2.,2013-05-16 10:50:00,
2013-05-16 06:55:00,52.8,50.8,29.72,SSE,162,0.0,0.0,93,0.00,,,0.00,32,HR-IXPWINDi_r2_v1.2.,2013-05-16 10:55:00,
2013-05-16 07:00:00,52.9,50.9,29.72,SSE,162,0.0,0.0,93,0.00,,,0.00,25,HR-IXPWINDi_r2_v1.2.,2013-05-16 11:00:00,
2013-05-16 07:05:00,53.2,51.2,29.73,SSE,162,0.0,0.0,93,0.00,,,0.00,28,HR-IXPWINDi_r2_v1.2.,2013-05-16 11:05:00,
2013-05-16 07:11:00,53.5,51.5,29.73,SSE,162,0.0,0.0,93,0.00,,,0.00,44,HR-IXPWINDi_r2_v1.2.,2013-05-16 11:11:00,
2013-05-16 07:16:00,53.9,51.9,29.73,SSE,162,0.0,0.0,93,0.00,,,0.00,49,HR-IXPWINDi_r2_v1.2.,2013-05-16 11:16:00,
2013-05-16 07:21:00,54.2,52.2,29.74,SSE,162,0.0,0.0,93,0.00,,,0.00,37,HR-IXPWINDi_r2_v1.2.,2013-05-16 11:21:00,
2013-05-16 07:26:00,54.5,52.5,29.74,SSE,162,0.0,0.0,93,0.00,,,0.00,63,HR-IXPWINDi_r2_v1.2.,2013-05-16 11:26:00,
2013-05-16 07:31:00,54.8,52.7,29.74,SSE,162,0.0,0.0,93,0.00,,,0.00,56,HR-IXPWINDi_r2_v1.2.,2013-05-16 11:31:00,
2013-05-16 07:36:00,55.3,53.2,29.74,SSE,162,0.0,0.0,93,0.00,,,0.00,58,HR-IXPWINDi_r2_v1.2.,2013-05-16 11:36:00,
2013-05-16 07:41:00,55.7,53.6,29.74,SSE,162,0.0,0.0,93,0.00,,,0.00,65,HR-IXPWINDi_r2_v1.2.,2013-05-16 11:41:00,
2013-05-16 07:46:00,56.0,53.9,29.74,SSE,162,0.0,0.0,93,0.00,,,0.00,58,HR-IXPWINDi_r2_v1.2.,2013-05-16 11:46:00,
2013-05-16 07:52:00,56.5,54.4,29.74,SSE,162,0.0,0.0,93,0.00,,,0.00,53,HR-IXPWINDi_r2_v1.2.,2013-05-16 11:52:00,
2013-05-16 07:57:00,56.7,54.6,29.74,SSE,162,0.0,0.0,93,0.00,,,0.00,81,HR-IXPWINDi_r2_v1.2.,2013-05-16 11:57:00,
2013-05-16 08:02:00,57.3,55.2,29.74,SSE,162,0.0,0.0,93,0.00,,,0.00,70,HR-IXPWINDi_r2_v1.2.,2013-05-16 12:02:00,
2013-05-16 08:07:00,58.0,56.2,29.74,SSE,162,0.0,0.0,94,0.00,,,0.00,93,HR-IXPWINDi_r2_v1.2.,2013-05-16 12:07:00,
2013-05-16 08:13:00,58.7,56.9,29.74,SSE,162,0.0,0.0,94,0.00,,,0.00,79,HR-IXPWINDi_r2_v1.2.,2013-05-16 12:13:00,
2013-05-16 08:18:00,59.3,57.5,29.74,SSE,162,0.0,0.0,94,0.00,,,0.00,86,HR-IXPWINDi_r2_v1.2.,2013-05-16 12:18:00,
2013-05-16 08:23:00,59.9,58.1,29.75,SSE,162,0.0,0.0,94,0.00,,,0.00,99,HR-IXPWINDi_r2_v1.2.,2013-05-16 12:23:00,
2013-05-16 08:28:00,60.4,58.6,29.75,SSE,162,0.0,0.0,94,0.00,,,0.00,114,HR-IXPWINDi_r2_v1.2.,2013-05-16 12:28:00,
2013-05-16 08:33:00,61.0,59.2,29.75,SSE,162,0.0,0.0,94,0.00,,,0.00,114,HR-IXPWINDi_r2_v1.2.,2013-05-16 12:33:00,
2013-05-16 08:39:00,61.8,59.7,29.75,SSE,162,0.0,0.0,93,0.00,,,0.00,121,HR-IXPWINDi_r2_v1.2.,2013-05-16 12:39:00,
2013-05-16 08:44:00,62.4,60.3,29.75,SSE,162,0.0,0.0,93,0.00,,,0.00,134,HR-IXPWINDi_r2_v1.2.,2013-05-16 12:44:00,
2013-05-16 08:49:00,62.9,60.8,29.75,SSE,162,0.0,0.0,93,0.00,,,0.00,132,HR-IXPWINDi_r2_v1.2.,2013-05-16 12:49:00,
2013-05-16 08:54:00,63.2,60.8,29.74,SSE,162,0.0,0.0,92,0.00,,,0.00,132,HR-IXPWINDi_r2_v1.2.,2013-05-16 12:54:00,
2013-05-16 09:00:00,63.4,60.7,29.74,SSE,162,0.0,0.0,91,0.00,,,0.00,127,HR-IXPWINDi_r2_v1.2.,2013-05-16 13:00:00,
2013-05-16 09:05:00,63.4,59.4,29.75,South,169,0.0,1.0,87,0.00,,,0.00,123,HR-IXPWINDi_r2_v1.2.,2013-05-16 13:05:00,
2013-05-16 09:10:00,63.7,58.0,29.75,SSE,168,0.0,1.0,82,0.00,,,0.00,135,HR-IXPWINDi_r2_v1.2.,2013-05-16 13:10:00,
2013-05-16 09:15:00,64.2,58.2,29.75,SSE,168,0.0,0.0,81,0.00,,,0.00,141,HR-IXPWINDi_r2_v1.2.,2013-05-16 13:15:00,
2013-05-16 09:21:00,64.5,56.0,29.75,South,169,0.0,0.0,74,0.00,,,0.00,116,HR-IXPWINDi_r2_v1.2.,2013-05-16 13:21:00,
2013-05-16 09:26:00,65.0,55.7,29.75,South,169,0.0,0.0,72,0.00,,,0.00,141,HR-IXPWINDi_r2_v1.2.,2013-05-16 13:26:00,
2013-05-16 09:31:00,65.2,53.1,29.75,South,169,1.0,2.0,65,0.00,,,0.00,132,HR-IXPWINDi_r2_v1.2.,2013-05-16 13:31:00,
2013-05-16 09:36:00,66.0,51.7,29.76,South,169,0.0,2.0,60,0.00,,,0.00,169,HR-IXPWINDi_r2_v1.2.,2013-05-16 13:36:00,
2013-05-16 09:41:00,66.3,51.9,29.76,SSE,168,0.0,2.0,60,0.00,,,0.00,174,HR-IXPWINDi_r2_v1.2.,2013-05-16 13:41:00,
2013-05-16 09:47:00,66.9,50.2,29.76,South,169,0.0,3.0,55,0.00,,,0.00,158,HR-IXPWINDi_r2_v1.2.,2013-05-16 13:47:00,
2013-05-16 09:52:00,67.3,48.5,29.76,South,171,0.0,3.0,51,0.00,,,0.00,176,HR-IXPWINDi_r2_v1.2.,2013-05-16 13:52:00,
2013-05-16 09:57:00,67.6,47.7,29.76,South,169,0.0,3.0,49,0.00,,,0.00,164,HR-IXPWINDi_r2_v1.2.,2013-05-16 13:57:00,
2013-05-16 10:03:00,67.9,46.3,29.76,WSW,247,0.0,3.0,46,0.00,,,0.00,202,HR-IXPWINDi_r2_v1.2.,2013-05-16 14:03:00,
2013-05-16 10:08:00,68.3,46.7,29.75,South,189,0.0,3.0,46,0.00,,,0.00,227,HR-IXPWINDi_r2_v1.2.,2013-05-16 14:08:00,
2013-05-16 10:13:00,68.4,46.2,29.75,SSE,164,0.0,3.0,45,0.00,,,0.00,174,HR-IXPWINDi_r2_v1.2.,2013-05-16 14:13:00,
2013-05-16 10:18:00,68.8,45.4,29.75,NNE,20,0.0,3.0,43,0.00,,,0.00,158,HR-IXPWINDi_r2_v1.2.,2013-05-16 14:18:00,
2013-05-16 10:23:00,68.8,44.7,29.74,South,169,0.0,5.0,42,0.00,,,0.00,185,HR-IXPWINDi_r2_v1.2.,2013-05-16 14:23:00,
2013-05-16 10:28:00,68.9,46.6,29.74,South,169,0.0,5.0,45,0.00,,,0.00,164,HR-IXPWINDi_r2_v1.2.,2013-05-16 14:28:00,
2013-05-16 10:33:00,68.9,42.9,29.74,SSE,167,0.0,2.0,39,0.00,,,0.00,190,HR-IXPWINDi_r2_v1.2.,2013-05-16 14:33:00,
2013-05-16 10:38:00,69.1,43.7,29.73,SSE,167,1.0,3.0,40,0.00,,,0.00,197,HR-IXPWINDi_r2_v1.2.,2013-05-16 14:38:00,
2013-05-16 10:44:00,69.4,43.3,29.73,SSE,167,0.0,3.0,39,0.00,,,0.00,171,HR-IXPWINDi_r2_v1.2.,2013-05-16 14:44:00,
2013-05-16 10:49:00,69.6,43.5,29.73,SSE,167,2.0,3.0,39,0.00,,,0.00,141,HR-IXPWINDi_r2_v1.2.,2013-05-16 14:49:00,
2013-05-16 10:54:00,69.9,43.1,29.73,North,11,0.0,3.0,38,0.00,,,0.00,153,HR-IXPWINDi_r2_v1.2.,2013-05-16 14:54:00,
2013-05-16 10:59:00,70.3,42.1,29.73,East,100,0.0,3.0,36,0.00,,,0.00,125,HR-IXPWINDi_r2_v1.2.,2013-05-16 14:59:00,
2013-05-16 11:04:00,70.4,42.9,29.73,SE,138,0.0,3.0,37,0.00,,,0.00,120,HR-IXPWINDi_r2_v1.2.,2013-05-16 15:04:00,
2013-05-16 11:09:00,70.8,41.0,29.73,SE,138,0.0,3.0,34,0.00,,,0.00,100,HR-IXPWINDi_r2_v1.2.,2013-05-16 15:09:00,
2013-05-16 11:14:00,71.1,42.0,29.73,SE,141,1.0,3.0,35,0.00,,,0.00,139,HR-IXPWINDi_r2_v1.2.,2013-05-16 15:14:00,
2013-05-16 11:20:00,71.3,41.5,29.73,East,100,3.0,3.0,34,0.00,,,0.00,130,HR-IXPWINDi_r2_v1.2.,2013-05-16 15:20:00,
2013-05-16 11:25:00,71.6,42.5,29.73,ENE,62,0.0,3.0,35,0.00,,,0.00,99,HR-IXPWINDi_r2_v1.2.,2013-05-16 15:25:00,
2013-05-16 11:30:00,72.0,41.3,29.73,East,99,0.0,5.0,33,0.00,,,0.00,107,HR-IXPWINDi_r2_v1.2.,2013-05-16 15:30:00,
2013-05-16 11:35:00,72.1,41.4,29.73,ESE,110,0.0,5.0,33,0.00,,,0.00,120,HR-IXPWINDi_r2_v1.2.,2013-05-16 15:35:00,
2013-05-16 11:40:00,72.5,42.5,29.73,ESE,117,3.0,5.0,34,0.00,,,0.00,118,HR-IXPWINDi_r2_v1.2.,2013-05-16 15:40:00,
2013-05-16 11:45:00,72.7,41.1,29.73,South,174,2.0,6.0,32,0.00,,,0.00,132,HR-IXPWINDi_r2_v1.2.,2013-05-16 15:45:00,
2013-05-16 11:50:00,72.7,40.3,29.73,SSE,152,0.0,7.0,31,0.00,,,0.00,118,HR-IXPWINDi_r2_v1.2.,2013-05-16 15:50:00,
2013-05-16 11:56:00,72.8,40.4,29.73,SSE,148,2.0,7.0,31,0.00,,,0.00,128,HR-IXPWINDi_r2_v1.2.,2013-05-16 15:56:00,
2013-05-16 12:01:00,73.2,39.9,29.73,ENE,78,0.0,6.0,30,0.00,,,0.00,248,HR-IXPWINDi_r2_v1.2.,2013-05-16 16:01:00,
2013-05-16 12:06:00,73.3,40.0,29.73,SSE,162,3.0,7.0,30,0.00,,,0.00,248,HR-IXPWINDi_r2_v1.2.,2013-05-16 16:06:00,
2013-05-16 12:11:00,73.7,41.2,29.73,North,11,1.0,7.0,31,0.00,,,0.00,862,HR-IXPWINDi_r2_v1.2.,2013-05-16 16:11:00,
2013-05-16 12:16:00,74.2,40.7,29.73,ESE,104,0.0,5.0,30,0.00,,,0.00,866,HR-IXPWINDi_r2_v1.2.,2013-05-16 16:16:00,
2013-05-16 12:22:00,74.9,39.6,29.72,ESE,104,2.0,5.0,28,0.00,,,0.00,878,HR-IXPWINDi_r2_v1.2.,2013-05-16 16:22:00,
2013-05-16 12:27:00,74.7,43.7,29.72,ESE,119,2.0,6.0,33,0.00,,,0.00,874,HR-IXPWINDi_r2_v1.2.,2013-05-16 16:27:00,
2013-05-16 12:32:00,74.9,39.6,29.72,ESE,112,0.0,6.0,28,0.00,,,0.00,887,HR-IXPWINDi_r2_v1.2.,2013-05-16 16:32:00,
2013-05-16 12:37:00,75.1,41.5,29.72,ESE,117,1.0,3.0,30,0.00,,,0.00,887,HR-IXPWINDi_r2_v1.2.,2013-05-16 16:37:00,
2013-05-16 12:42:00,75.8,40.4,29.72,NE,44,3.0,5.0,28,0.00,,,0.00,890,HR-IXPWINDi_r2_v1.2.,2013-05-16 16:42:00,
2013-05-16 12:47:00,76.3,41.7,29.72,SE,133,1.0,5.0,29,0.00,,,0.00,896,HR-IXPWINDi_r2_v1.2.,2013-05-16 16:47:00,
2013-05-16 12:53:00,76.5,40.0,29.71,North,354,0.0,6.0,27,0.00,,,0.00,904,HR-IXPWINDi_r2_v1.2.,2013-05-16 16:53:00,
2013-05-16 12:58:00,76.8,41.2,29.71,West,281,1.0,6.0,28,0.00,,,0.00,904,HR-IXPWINDi_r2_v1.2.,2013-05-16 16:58:00,
2013-05-16 13:03:00,77.2,41.5,29.71,WNW,282,0.0,3.0,28,0.00,,,0.00,908,HR-IXPWINDi_r2_v1.2.,2013-05-16 17:03:00,
2013-05-16 13:08:00,78.1,42.3,29.71,SSW,199,1.0,3.0,28,0.00,,,0.00,908,HR-IXPWINDi_r2_v1.2.,2013-05-16 17:08:00,
2013-05-16 13:14:00,77.7,41.0,29.71,SSE,158,4.0,5.0,27,0.00,,,0.00,906,HR-IXPWINDi_r2_v1.2.,2013-05-16 17:14:00,
2013-05-16 13:19:00,77.7,41.0,29.71,SE,145,1.0,6.0,27,0.00,,,0.00,901,HR-IXPWINDi_r2_v1.2.,2013-05-16 17:19:00,
2013-05-16 13:24:00,77.9,41.2,29.71,SSE,167,2.0,6.0,27,0.00,,,0.00,894,HR-IXPWINDi_r2_v1.2.,2013-05-16 17:24:00,
2013-05-16 13:29:00,77.4,41.7,29.71,SSE,157,4.0,6.0,28,0.00,,,0.00,883,HR-IXPWINDi_r2_v1.2.,2013-05-16 17:29:00,
2013-05-16 13:35:00,76.8,41.2,29.71,ESE,106,3.0,8.0,28,0.00,,,0.00,892,HR-IXPWINDi_r2_v1.2.,2013-05-16 17:35:00,
2013-05-16 13:40:00,76.5,41.9,29.70,ESE,106,0.0,8.0,29,0.00,,,0.00,889,HR-IXPWINDi_r2_v1.2.,2013-05-16 17:40:00,
2013-05-16 13:45:00,77.0,42.3,29.70,East,100,0.0,3.0,29,0.00,,,0.00,885,HR-IXPWINDi_r2_v1.2.,2013-05-16 17:45:00,
2013-05-16 13:50:00,77.4,41.7,29.70,East,100,2.0,5.0,28,0.00,,,0.00,880,HR-IXPWINDi_r2_v1.2.,2013-05-16 17:50:00,
2013-05-16 13:55:00,77.6,42.8,29.70,NNW,337,2.0,6.0,29,0.00,,,0.00,878,HR-IXPWINDi_r2_v1.2.,2013-05-16 17:55:00,
2013-05-16 14:00:00,78.1,42.3,29.70,SSE,164,0.0,7.0,28,0.00,,,0.00,871,HR-IXPWINDi_r2_v1.2.,2013-05-16 18:00:00,
2013-05-16 14:06:00,78.6,41.8,29.69,SSE,161,0.0,7.0,27,0.00,,,0.00,862,HR-IXPWINDi_r2_v1.2.,2013-05-16 18:06:00,
2013-05-16 14:11:00,79.6,43.6,29.69,SSE,168,1.0,3.0,28,0.00,,,0.00,859,HR-IXPWINDi_r2_v1.2.,2013-05-16 18:11:00,
2013-05-16 14:16:00,79.9,43.9,29.69,SSE,168,0.0,3.0,28,0.00,,,0.00,859,HR-IXPWINDi_r2_v1.2.,2013-05-16 18:16:00,
2013-05-16 14:21:00,79.9,43.9,29.69,SW,215,1.0,5.0,28,0.00,,,0.00,853,HR-IXPWINDi_r2_v1.2.,2013-05-16 18:21:00,
2013-05-16 14:26:00,80.3,43.3,29.69,SSE,158,0.0,5.0,27,0.00,,,0.00,839,HR-IXPWINDi_r2_v1.2.,2013-05-16 18:26:00,
2013-05-16 14:32:00,80.1,44.0,29.69,North,0,0.0,6.0,28,0.00,,,0.00,827,HR-IXPWINDi_r2_v1.2.,2013-05-16 18:32:00,
2013-05-16 14:37:00,80.3,43.3,29.68,North,0,0.0,6.0,27,0.00,,,0.00,827,HR-IXPWINDi_r2_v1.2.,2013-05-16 18:37:00,
2013-05-16 14:42:00,80.7,44.5,29.68,North,357,0.0,3.0,28,0.00,,,0.00,135,HR-IXPWINDi_r2_v1.2.,2013-05-16 18:42:00,
2013-05-16 14:47:00,80.7,43.6,29.68,SE,134,1.0,5.0,27,0.00,,,0.00,176,HR-IXPWINDi_r2_v1.2.,2013-05-16 18:47:00,
2013-05-16 14:53:00,81.2,45.0,29.68,SSW,199,0.0,5.0,28,0.00,,,0.00,813,HR-IXPWINDi_r2_v1.2.,2013-05-16 18:53:00,
2013-05-16 14:58:00,82.2,43.9,29.68,SE,124,0.0,3.0,26,0.00,,,0.00,799,HR-IXPWINDi_r2_v1.2.,2013-05-16 18:58:00,
2013-05-16 15:03:00,82.2,45.8,29.68,SE,124,0.0,2.0,28,0.00,,,0.00,797,HR-IXPWINDi_r2_v1.2.,2013-05-16 19:03:00,
2013-05-16 15:08:00,81.2,44.0,29.68,East,82,3.0,7.0,27,0.00,,,0.00,809,HR-IXPWINDi_r2_v1.2.,2013-05-16 19:08:00,
2013-05-16 15:13:00,79.8,45.6,29.68,East,97,0.0,7.0,30,0.00,,,0.00,823,HR-IXPWINDi_r2_v1.2.,2013-05-16 19:13:00,
2013-05-16 15:18:00,80.3,48.5,29.68,East,93,1.0,3.0,33,0.00,,,0.00,785,HR-IXPWINDi_r2_v1.2.,2013-05-16 19:18:00,
2013-05-16 15:23:00,80.9,47.4,29.68,East,99,0.0,3.0,31,0.00,,,0.00,380,HR-IXPWINDi_r2_v1.2.,2013-05-16 19:23:00,
2013-05-16 15:29:00,80.7,47.2,29.68,SE,128,0.0,7.0,31,0.00,,,0.00,132,HR-IXPWINDi_r2_v1.2.,2013-05-16 19:29:00,
2013-05-16 15:34:00,80.1,46.7,29.68,SE,127,1.0,7.0,31,0.00,,,0.00,185,HR-IXPWINDi_r2_v1.2.,2013-05-16 19:34:00,
2013-05-16 15:39:00,79.6,47.9,29.67,South,186,2.0,3.0,33,0.00,,,0.00,171,HR-IXPWINDi_r2_v1.2.,2013-05-16 19:39:00,
2013-05-16 15:44:00,79.0,48.2,29.67,NNE,32,0.0,3.0,34,0.00,,,0.00,146,HR-IXPWINDi_r2_v1.2.,2013-05-16 19:44:00,
2013-05-16 15:50:00,79.0,49.0,29.67,SE,131,0.0,3.0,35,0.00,,,0.00,683,HR-IXPWINDi_r2_v1.2.,2013-05-16 19:50:00,
2013-05-16 15:55:00,78.6,48.6,29.67,SE,131,2.0,3.0,35,0.00,,,0.00,109,HR-IXPWINDi_r2_v1.2.,2013-05-16 19:55:00,
2013-05-16 16:00:00,78.8,48.8,29.67,SE,131,0.0,5.0,35,0.00,,,0.00,649,HR-IXPWINDi_r2_v1.2.,2013-05-16 20:00:00,
2013-05-16 16:05:00,79.2,49.2,29.67,South,174,0.0,5.0,35,0.00,,,0.00,623,HR-IXPWINDi_r2_v1.2.,2013-05-16 20:05:00,
2013-05-16 16:11:00,79.6,48.7,29.67,ESE,102,0.0,5.0,34,0.00,,,0.00,621,HR-IXPWINDi_r2_v1.2.,2013-05-16 20:11:00,
2013-05-16 16:16:00,79.6,49.5,29.67,ESE,103,0.0,5.0,35,0.00,,,0.00,225,HR-IXPWINDi_r2_v1.2.,2013-05-16 20:16:00,
2013-05-16 16:21:00,79.6,50.3,29.67,ENE,64,3.0,4.0,36,0.00,,,0.00,165,HR-IXPWINDi_r2_v1.2.,2013-05-16 20:21:00,
2013-05-16 16:26:00,79.2,48.4,29.67,South,191,0.0,4.0,34,0.00,,,0.00,109,HR-IXPWINDi_r2_v1.2.,2013-05-16 20:26:00,
2013-05-16 16:32:00,79.4,50.1,29.67,South,189,1.0,4.0,36,0.00,,,0.00,102,HR-IXPWINDi_r2_v1.2.,2013-05-16 20:32:00,
2013-05-16 16:37:00,79.2,46.8,29.67,SSE,160,0.0,3.0,32,0.00,,,0.00,93,HR-IXPWINDi_r2_v1.2.,2013-05-16 20:37:00,
2013-05-16 16:42:00,79.2,48.4,29.67,SSE,161,0.0,3.0,34,0.00,,,0.00,90,HR-IXPWINDi_r2_v1.2.,2013-05-16 20:42:00,
2013-05-16 16:47:00,79.2,49.2,29.67,SSE,160,0.0,2.0,35,0.00,,,0.00,83,HR-IXPWINDi_r2_v1.2.,2013-05-16 20:47:00,
2013-05-16 16:52:00,79.2,49.2,29.67,SSE,160,2.0,3.0,35,0.00,,,0.00,77,HR-IXPWINDi_r2_v1.2.,2013-05-16 20:52:00,
2013-05-16 16:58:00,79.0,50.5,29.67,SSE,160,0.0,3.0,37,0.00,,,0.00,72,HR-IXPWINDi_r2_v1.2.,2013-05-16 20:58:00,
2013-05-16 17:03:00,78.8,48.8,29.67,SSE,161,2.0,3.0,35,0.00,,,0.00,65,HR-IXPWINDi_r2_v1.2.,2013-05-16 21:03:00,
2013-05-16 17:08:00,78.8,45.6,29.66,SSE,154,1.0,5.0,31,0.00,,,0.00,60,HR-IXPWINDi_r2_v1.2.,2013-05-16 21:08:00,
2013-05-16 17:13:00,79.0,43.1,29.66,SE,141,2.0,7.0,28,0.00,,,0.00,67,HR-IXPWINDi_r2_v1.2.,2013-05-16 21:13:00,
2013-05-16 17:18:00,79.0,43.1,29.66,ESE,104,1.0,7.0,28,0.00,,,0.00,70,HR-IXPWINDi_r2_v1.2.,2013-05-16 21:18:00,
2013-05-16 17:23:00,79.2,40.3,29.66,ESE,113,0.0,6.0,25,0.00,,,0.00,49,HR-IXPWINDi_r2_v1.2.,2013-05-16 21:23:00,
2013-05-16 17:28:00,79.2,39.3,29.66,ESE,104,2.0,6.0,24,0.00,,,0.00,44,HR-IXPWINDi_r2_v1.2.,2013-05-16 21:28:00,
2013-05-16 17:34:00,79.2,37.1,29.66,SE,130,2.0,10.0,22,0.00,,,0.00,42,HR-IXPWINDi_r2_v1.2.,2013-05-16 21:34:00,
2013-05-16 17:39:00,79.4,37.2,29.66,ESE,119,1.0,10.0,22,0.00,,,0.00,42,HR-IXPWINDi_r2_v1.2.,2013-05-16 21:39:00,
2013-05-16 17:44:00,79.4,38.4,29.66,ESE,116,1.0,7.0,23,0.00,,,0.00,37,HR-IXPWINDi_r2_v1.2.,2013-05-16 21:44:00,
2013-05-16 17:49:00,79.4,37.2,29.66,SE,143,2.0,6.0,22,0.00,,,0.00,30,HR-IXPWINDi_r2_v1.2.,2013-05-16 21:49:00,
2013-05-16 17:54:00,79.0,38.0,29.66,SE,143,1.0,6.0,23,0.00,,,0.00,26,HR-IXPWINDi_r2_v1.2.,2013-05-16 21:54:00,
2013-05-16 17:59:00,78.8,37.9,29.66,SE,143,0.0,5.0,23,0.00,,,0.00,23,HR-IXPWINDi_r2_v1.2.,2013-05-16 21:59:00,
2013-05-16 18:05:00,78.6,38.8,29.66,ESE,123,4.0,6.0,24,0.00,,,0.00,21,HR-IXPWINDi_r2_v1.2.,2013-05-16 22:05:00,
2013-05-16 18:10:00,78.6,37.7,29.66,West,267,2.0,6.0,23,0.00,,,0.00,21,HR-IXPWINDi_r2_v1.2.,2013-05-16 22:10:00,
2013-05-16 18:15:00,78.6,39.8,29.66,South,174,1.0,6.0,25,0.00,,,0.00,23,HR-IXPWINDi_r2_v1.2.,2013-05-16 22:15:00,
2013-05-16 18:20:00,78.3,37.4,29.66,North,357,0.0,7.0,23,0.00,,,0.00,21,HR-IXPWINDi_r2_v1.2.,2013-05-16 22:20:00,
2013-05-16 18:25:00,78.1,39.4,29.66,WNW,294,0.0,7.0,25,0.00,,,0.00,21,HR-IXPWINDi_r2_v1.2.,2013-05-16 22:25:00,
2013-05-16 18:31:00,77.7,40.1,29.66,NNE,16,1.0,3.0,26,0.00,,,0.00,21,HR-IXPWINDi_r2_v1.2.,2013-05-16 22:31:00,
2013-05-16 18:36:00,77.4,37.8,29.67,SSE,154,0.0,4.0,24,0.00,,,0.00,16,HR-IXPWINDi_r2_v1.2.,2013-05-16 22:36:00,
2013-05-16 18:41:00,77.4,38.8,29.67,SSE,154,0.0,4.0,25,0.00,,,0.00,19,HR-IXPWINDi_r2_v1.2.,2013-05-16 22:41:00,
2013-05-16 18:46:00,77.4,39.8,29.67,East,97,2.0,3.0,26,0.00,,,0.00,19,HR-IXPWINDi_r2_v1.2.,2013-05-16 22:46:00,
2013-05-16 18:51:00,77.2,38.6,29.67,ENE,64,2.0,5.0,25,0.00,,,0.00,18,HR-IXPWINDi_r2_v1.2.,2013-05-16 22:51:00,
2013-05-16 18:57:00,77.0,38.5,29.67,ESE,104,0.0,5.0,25,0.00,,,0.00,16,HR-IXPWINDi_r2_v1.2.,2013-05-16 22:57:00,
2013-05-16 19:02:00,76.8,38.3,29.67,ESE,104,0.0,3.0,25,0.00,,,0.00,12,HR-IXPWINDi_r2_v1.2.,2013-05-16 23:02:00,
2013-05-16 19:07:00,76.7,39.2,29.68,ESE,104,0.0,2.0,26,0.00,,,0.00,11,HR-IXPWINDi_r2_v1.2.,2013-05-16 23:07:00,
2013-05-16 19:12:00,76.5,39.0,29.68,SW,234,1.0,2.0,26,0.00,,,0.00,11,HR-IXPWINDi_r2_v1.2.,2013-05-16 23:12:00,
2013-05-16 19:17:00,76.3,37.9,29.68,SW,229,0.0,2.0,25,0.00,,,0.00,9,HR-IXPWINDi_r2_v1.2.,2013-05-16 23:17:00,
2013-05-16 19:22:00,76.0,38.6,29.69,SW,229,0.0,2.0,26,0.00,,,0.00,9,HR-IXPWINDi_r2_v1.2.,2013-05-16 23:22:00,
2013-05-16 19:28:00,75.8,38.5,29.69,SW,229,0.0,2.0,26,0.00,,,0.00,9,HR-IXPWINDi_r2_v1.2.,2013-05-16 23:28:00,
2013-05-16 19:33:00,75.4,39.1,29.69,SW,229,0.0,0.0,27,0.00,,,0.00,7,HR-IXPWINDi_r2_v1.2.,2013-05-16 23:33:00,
2013-05-16 19:38:00,75.1,39.8,29.70,SW,229,2.0,2.0,28,0.00,,,0.00,7,HR-IXPWINDi_r2_v1.2.,2013-05-16 23:38:00,
2013-05-16 19:43:00,74.9,39.6,29.70,SSW,199,0.0,3.0,28,0.00,,,0.00,0,HR-IXPWINDi_r2_v1.2.,2013-05-16 23:43:00,
2013-05-16 19:49:00,74.6,41.9,29.70,SSW,199,0.0,3.0,31,0.00,,,0.00,0,HR-IXPWINDi_r2_v1.2.,2013-05-16 23:49:00,
2013-05-16 19:54:00,74.0,46.7,29.70,SSW,199,1.0,2.0,38,0.00,,,0.00,0,HR-IXPWINDi_r2_v1.2.,2013-05-16 23:54:00,
2013-05-16 19:59:00,73.9,46.0,29.70,SSW,199,0.0,2.0,37,0.00,,,0.00,0,HR-IXPWINDi_r2_v1.2.,2013-05-16 23:59:00,
2013-05-16 20:04:00,73.3,46.1,29.70,SSW,198,0.0,2.0,38,0.00,,,0.00,0,HR-IXPWINDi_r2_v1.2.,2013-05-17 00:04:00,
2013-05-16 20:09:00,72.8,47.7,29.71,SSW,199,0.0,2.0,41,0.00,,,0.00,0,HR-IXPWINDi_r2_v1.2.,2013-05-17 00:09:00,
2013-05-16 20:14:00,72.1,49.5,29.71,SSW,198,0.0,0.0,45,0.00,,,0.00,0,HR-IXPWINDi_r2_v1.2.,2013-05-17 00:14:00,
2013-05-16 20:20:00,71.3,50.6,29.71,SSW,198,0.0,2.0,48,0.00,,,0.00,0,HR-IXPWINDi_r2_v1.2.,2013-05-17 00:20:00,
2013-05-16 20:25:00,70.8,51.2,29.71,SSW,198,0.0,2.0,50,0.00,,,0.00,0,HR-IXPWINDi_r2_v1.2.,2013-05-17 00:25:00,
2013-05-16 20:30:00,70.3,51.3,29.71,SSW,198,0.0,2.0,51,0.00,,,0.00,0,HR-IXPWINDi_r2_v1.2.,2013-05-17 00:30:00,
2013-05-16 20:35:00,69.8,51.3,29.72,SSW,198,0.0,2.0,52,0.00,,,0.00,0,HR-IXPWINDi_r2_v1.2.,2013-05-17 00:35:00,
2013-05-16 20:40:00,69.4,51.0,29.72,SSW,198,0.0,0.0,52,0.00,,,0.00,0,HR-IXPWINDi_r2_v1.2.,2013-05-17 00:40:00,
2013-05-16 20:46:00,69.1,51.7,29.72,SSW,198,0.0,0.0,54,0.00,,,0.00,0,HR-IXPWINDi_r2_v1.2.,2013-05-17 00:46:00,
2013-05-16 20:51:00,68.8,51.9,29.72,SSW,198,0.0,0.0,55,0.00,,,0.00,0,HR-IXPWINDi_r2_v1.2.,2013-05-17 00:51:00,
2013-05-16 20:56:00,68.4,52.0,29.72,SSW,198,0.0,0.0,56,0.00,,,0.00,0,HR-IXPWINDi_r2_v1.2.,2013-05-17 00:56:00,
2013-05-16 21:01:00,67.8,52.0,29.72,SSW,198,0.0,0.0,57,0.00,,,0.00,0,HR-IXPWINDi_r2_v1.2.,2013-05-17 01:01:00,
2013-05-16 21:06:00,67.1,52.2,29.73,SSW,198,0.0,0.0,59,0.00,,,0.00,0,HR-IXPWINDi_r2_v1.2.,2013-05-17 01:06:00,
2013-05-16 21:11:00,66.4,52.0,29.73,SSW,198,0.0,0.0,60,0.00,,,0.00,0,HR-IXPWINDi_r2_v1.2.,2013-05-17 01:11:00,
2013-05-16 21:16:00,66.1,52.6,29.73,SSW,198,0.0,0.0,62,0.00,,,0.00,0,HR-IXPWINDi_r2_v1.2.,2013-05-17 01:16:00,
2013-05-16 21:21:00,65.6,52.6,29.74,SSW,198,0.0,0.0,63,0.00,,,0.00,0,HR-IXPWINDi_r2_v1.2.,2013-05-17 01:21:00,
2013-05-16 21:26:00,65.0,52.5,29.74,SSW,198,0.0,0.0,64,0.00,,,0.00,0,HR-IXPWINDi_r2_v1.2.,2013-05-17 01:26:00,
2013-05-16 21:32:00,64.3,51.8,29.74,SSW,198,0.0,0.0,64,0.00,,,0.00,0,HR-IXPWINDi_r2_v1.2.,2013-05-17 01:32:00,
2013-05-16 21:37:00,63.7,51.7,29.75,SSW,198,0.0,0.0,65,0.00,,,0.00,0,HR-IXPWINDi_r2_v1.2.,2013-05-17 01:37:00,
2013-05-16 21:42:00,63.2,51.6,29.75,SSW,198,0.0,0.0,66,0.00,,,0.00,0,HR-IXPWINDi_r2_v1.2.,2013-05-17 01:42:00,
2013-05-16 21:47:00,62.7,51.5,29.75,SSW,198,0.0,0.0,67,0.00,,,0.00,0,HR-IXPWINDi_r2_v1.2.,2013-05-17 01:47:00,
2013-05-16 21:53:00,62.4,51.6,29.75,SSW,198,0.0,0.0,68,0.00,,,0.00,0,HR-IXPWINDi_r2_v1.2.,2013-05-17 01:53:00,
2013-05-16 21:58:00,62.0,51.3,29.75,SSW,198,0.0,0.0,68,0.00,,,0.00,0,HR-IXPWINDi_r2_v1.2.,2013-05-17 01:58:00,
2013-05-16 22:03:00,61.6,51.3,29.75,SSW,198,0.0,0.0,69,0.00,,,0.00,0,HR-IXPWINDi_r2_v1.2.,2013-05-17 02:03:00,
2013-05-16 22:08:00,61.3,51.0,29.76,SSW,198,0.0,0.0,69,0.00,,,0.00,0,HR-IXPWINDi_r2_v1.2.,2013-05-17 02:08:00,
2013-05-16 22:13:00,61.0,50.7,29.76,SSW,198,0.0,0.0,69,0.00,,,0.00,0,HR-IXPWINDi_r2_v1.2.,2013-05-17 02:13:00,
2013-05-16 22:19:00,60.7,50.8,29.76,SSW,198,0.0,0.0,70,0.00,,,0.00,0,HR-IXPWINDi_r2_v1.2.,2013-05-17 02:19:00,
2013-05-16 22:24:00,60.2,50.7,29.76,SSW,198,0.0,0.0,71,0.00,,,0.00,0,HR-IXPWINDi_r2_v1.2.,2013-05-17 02:24:00,
2013-05-16 22:29:00,59.8,50.7,29.76,SSW,198,0.0,0.0,72,0.00,,,0.00,0,HR-IXPWINDi_r2_v1.2.,2013-05-17 02:29:00,
2013-05-16 22:34:00,59.5,50.4,29.76,South,191,0.0,0.0,72,0.00,,,0.00,0,HR-IXPWINDi_r2_v1.2.,2013-05-17 02:34:00,
2013-05-16 22:39:00,59.0,50.3,29.77,SSW,198,0.0,0.0,73,0.00,,,0.00,0,HR-IXPWINDi_r2_v1.2.,2013-05-17 02:39:00,
2013-05-16 22:45:00,58.7,50.4,29.77,SSW,198,0.0,0.0,74,0.00,,,0.00,0,HR-IXPWINDi_r2_v1.2.,2013-05-17 02:45:00,
2013-05-16 22:50:00,58.4,50.4,29.77,SSW,198,0.0,0.0,75,0.00,,,0.00,0,HR-IXPWINDi_r2_v1.2.,2013-05-17 02:50:00,
2013-05-16 22:55:00,58.3,50.4,29.77,SSW,198,0.0,0.0,75,0.00,,,0.00,0,HR-IXPWINDi_r2_v1.2.,2013-05-17 02:55:00,
2013-05-16 23:00:00,58.1,50.5,29.77,SSW,198,0.0,0.0,76,0.00,,,0.00,0,HR-IXPWINDi_r2_v1.2.,2013-05-17 03:00:00,
2013-05-16 23:05:00,57.8,50.2,29.77,SSW,198,0.0,0.0,76,0.00,,,0.00,0,HR-IXPWINDi_r2_v1.2.,2013-05-17 03:05:00,
2013-05-16 23:11:00,57.6,50.4,29.77,SSW,198,0.0,0.0,77,0.00,,,0.00,0,HR-IXPWINDi_r2_v1.2.,2013-05-17 03:11:00,
2013-05-16 23:16:00,57.3,50.1,29.77,SSW,198,0.0,0.0,77,0.00,,,0.00,0,HR-IXPWINDi_r2_v1.2.,2013-05-17 03:16:00,
2013-05-16 23:21:00,57.2,50.3,29.77,SSW,198,0.0,0.0,78,0.00,,,0.00,0,HR-IXPWINDi_r2_v1.2.,2013-05-17 03:21:00,
2013-05-16 23:26:00,57.0,50.1,29.77,SSW,198,0.0,0.0,78,0.00,,,0.00,0,HR-IXPWINDi_r2_v1.2.,2013-05-17 03:26:00,
2013-05-16 23:31:00,56.9,50.4,29.77,SSW,198,0.0,0.0,79,0.00,,,0.00,0,HR-IXPWINDi_r2_v1.2.,2013-05-17 03:31:00,
2013-05-16 23:36:00,56.7,50.2,29.78,SSW,198,0.0,0.0,79,0.00,,,0.00,0,HR-IXPWINDi_r2_v1.2.,2013-05-17 03:36:00,
2013-05-16 23:42:00,56.5,50.0,29.78,SSW,198,0.0,0.0,79,0.00,,,0.00,0,HR-IXPWINDi_r2_v1.2.,2013-05-17 03:42:00,
2013-05-16 23:47:00,56.3,50.1,29.78,SSW,198,0.0,0.0,80,0.00,,,0.00,0,HR-IXPWINDi_r2_v1.2.,2013-05-17 03:47:00,
2013-05-16 23:52:00,56.2,50.1,29.79,SSW,198,0.0,0.0,80,0.00,,,0.00,0,HR-IXPWINDi_r2_v1.2.,2013-05-17 03:52:00,
2013-05-16 23:57:00,56.0,50.2,29.79,SSW,198,0.0,0.0,81,0.00,,,0.00,0,HR-IXPWINDi_r2_v1.2.,2013-05-17 03:57:00,